Tracking 29892 objects as of 21-Nov-2024
HD Live streaming from Space Station
objects crossing your sky now

FENGYUN 1C DEB

Track FENGYUN 1C DEB now!
10-day predictions


NORAD ID: 30280
Int'l Code: 1999-025YR
Perigee: 850.3 km
Apogee: 966.7 km
Inclination: 98.8 °
Period: 103.0 minutes
Semi major axis: 7279 km
RCS: 0.043 m2 (small)
Launch date: May 10, 1999
Source: People's Republic of China (PRC)
Launch site: Taiyaun Space Center, China (TSC)

Note: This is SATELLITE DEBRIS
Your satellite tracking list
Your tracking list is empty




NASA's NSSDC Master Catalog

Two Line Element Set (TLE):
1 30280U 99025YR  24324.98726517  .00000437  00000-0  32976-3 0  9992
2 30280  98.7562 325.7334 0079934 325.2848  60.8067 13.97813738909884
Source of the keplerian elements: AFSPC